Location: Rounton
(54.4000°N, 1.3500°W)
Time: 04:09:33
(UTC+00:00)

Vanguard 1 - Pass Details

Date: 09 December 2021
Orbit: 652 x 3830 km, 34.2° (Epoch: 17 January)

Event Time Altitude Azimuth Distance (km) Brightness Sun altitude
Exits shadow 00:28:58 18° 116° (ESE) 5,857 13.8 -57.9°
Drops below altitude 10° 00:32:41 10° 110° (ESE) 6,348 14.1 -57.7°
Sets 00:37:23 0° 103° (ESE) 7,052 14.5 -57.5°
